TimePDT,TemperatureF,Dew PointF,Humidity,Sea Level PressureIn,VisibilityMPH,Wind Direction,Wind SpeedMPH,Gust SpeedMPH,PrecipitationIn,Events,Conditions,WindDirDegrees,DateUTC
12:52 AM,60.1,50.0,69,29.81,10.0,WSW,5.8,-,N/A,,Clear,240,2013-09-17 07:52:00
1:52 AM,57.9,48.9,72,29.80,10.0,West,5.8,-,N/A,,Clear,270,2013-09-17 08:52:00
2:52 AM,55.0,48.9,80,29.79,10.0,NW,5.8,-,N/A,,Clear,310,2013-09-17 09:52:00
3:52 AM,54.0,48.9,83,29.78,10.0,Calm,Calm,-,N/A,,Clear,0,2013-09-17 10:52:00
4:52 AM,53.1,48.9,86,29.78,10.0,ESE,3.5,-,N/A,,Clear,120,2013-09-17 11:52:00
5:52 AM,52.0,48.9,89,29.79,10.0,SE,3.5,-,N/A,,Clear,130,2013-09-17 12:52:00
6:52 AM,52.0,48.9,89,29.80,10.0,Calm,Calm,-,N/A,,Clear,0,2013-09-17 13:52:00
7:52 AM,52.0,48.9,89,29.78,10.0,North,6.9,-,N/A,,Clear,360,2013-09-17 14:52:00
8:52 AM,59.0,51.1,75,29.77,10.0,North,9.2,-,N/A,,Clear,10,2013-09-17 15:52:00
9:52 AM,60.1,52.0,75,29.78,10.0,NNE,6.9,-,N/A,,Clear,20,2013-09-17 16:52:00
10:52 AM,62.1,51.1,67,29.77,10.0,Calm,Calm,-,N/A,,Clear,0,2013-09-17 17:52:00
11:52 AM,66.9,51.1,57,29.74,10.0,WNW,5.8,-,N/A,,Clear,290,2013-09-17 18:52:00
12:52 PM,69.1,51.1,53,29.73,10.0,West,6.9,-,N/A,,Clear,270,2013-09-17 19:52:00
1:52 PM,70.0,50.0,49,29.71,10.0,WSW,6.9,-,N/A,,Clear,240,2013-09-17 20:52:00
2:52 PM,70.0,50.0,49,29.71,10.0,SW,6.9,-,N/A,,Clear,220,2013-09-17 21:52:00
3:52 PM,71.1,48.9,45,29.70,10.0,SW,11.5,-,N/A,,Clear,220,2013-09-17 22:52:00
4:52 PM,71.1,48.0,44,29.70,10.0,SW,11.5,-,N/A,,Overcast,220,2013-09-17 23:52:00
5:52 PM,70.0,46.0,42,29.69,10.0,SSW,11.5,-,N/A,,Overcast,210,2013-09-18 00:52:00
6:52 PM,64.9,46.9,52,29.70,10.0,SW,10.4,-,N/A,,Scattered Clouds,230,2013-09-18 01:52:00
7:52 PM,64.0,48.9,58,29.72,10.0,West,8.1,-,N/A,,Clear,260,2013-09-18 02:52:00
8:52 PM,62.1,45.0,53,29.73,10.0,West,8.1,-,N/A,,Clear,270,2013-09-18 03:52:00
9:52 PM,60.1,44.1,55,29.76,10.0,West,5.8,-,N/A,,Scattered Clouds,270,2013-09-18 04:52:00
10:52 PM,60.1,44.1,55,29.76,10.0,NW,12.7,-,N/A,,Scattered Clouds,310,2013-09-18 05:52:00
11:52 PM,60.1,45.0,57,29.78,10.0,NW,13.8,-,N/A,,Overcast,320,2013-09-18 06:52:00